Location: B�rgermoos
(47.6500°N, 9.0667°E)
Time: 16:22:57
(UTC+00:00)

Vanguard 1 - Pass Details

Date: 06 August 2021
Orbit: 652 x 3831 km, 34.3° (Epoch: 17 September)

Event Time Altitude Azimuth Distance (km) Brightness Sun altitude
Rises 12:35:14 0° 253° (WSW) 3,318 13.1 56.1°
Reaches altitude 10° 12:38:00 10° 235° (SW) 2,636 12.9 55.9°
Maximum altitude 12:42:25 20° 190° (S) 2,447 13.0 55.5°
Drops below altitude 10° 12:48:33 10° 148° (SSE) 3,837 13.4 54.9°
Sets 12:53:49 0° 134° (SE) 5,462 13.9 54.4°
